Volver al catálogo

GAOFEN DUOMO

GFDM

ActivoCienciaSSO
NORAD 45856·PAYLOAD·🇨🇳 China

Lanzado Jul 3, 2020 desde Taiyuan Satellite Launch Center

Loading…

Próximos Pases (próximas 24 horas)

TLE

ActualizadoSource: Space-Track

Época: Sep 14, 2026, 15:23 UTC

1 45856U 20042A   26257.64118292  .00000176  00000-0  32007-4 0  9991
2 45856  97.7656 314.2262 0011773 139.8195 220.3888 14.76861340334219

Sigue GAOFEN DUOMO en tiempo real con AllMySat

Download on the App Store